Zurück zum Katalog

TJS-25

AktivWissenschaftGEO
NORAD 69474·PAYLOAD·🇨🇳 China

Gestartet Jun 11, 2026 von Wenchang Space Launch Site

Loading…

TLE

AktuellSource: Space-Track

Epoche: Sep 14, 2026, 14:22 UTC

1 69474U 26129A   26257.59893444 -.00000378  00000-0  00000-0 0  9997
2 69474   5.8830 330.6055 0004170 278.5562  80.2414  1.00275550   953

Verfolge TJS-25 in Echtzeit mit AllMySat

Download on the App Store